Location: Le Petit-Vavre
(46.5081°N, 1.5239°E)
Time: 18:38:51
(UTC+00:00)

ERBS - Pass Details

Date: 03 March 2021
Orbit: 408 x 412 km, 57.0° (Epoch: 15 April)

Event Time Altitude Azimuth Distance (km) Brightness Sun altitude
Rises 18:56:13 0° 262° (W) 2,349 7.8 -13.4°
Reaches altitude 10° 18:58:31 10° 275° (W) 1,488 6.5 -13.8°
Maximum altitude 19:01:23 26° 335° (NNW) 851 4.1 -14.3°
Enters shadow 19:04:06 11° 33° (NNE) 1,436 4.7 -14.7°
